Location: Spring Creek
(38.2870°N, 100.2160°W)
Time: 02:59:11
(UTC+00:00)

FALCON 9 DEB - Pass Details

Date: 08 May 2021
Orbit: 364 x 377 km, 53.0° (Epoch: 22 June)

Event Time Altitude Azimuth Distance (km) Brightness Sun altitude
Rises 03:25:33 0° 310° (NW) 2,202 8.4 -18.6°
Reaches altitude 10° 03:27:35 10° 310° (NW) 1,352 6.9 -18.9°
Enters shadow 03:30:25 75° 278° (W) 380 2.8 -19.4°
